Location: Ocean City
(38.3360°N, 75.0850°W)
Time: 16:24:19
(UTC-04:00)

ISS - Visible Passes

Search period start: 03 August 2020 00:00
Search period end: 13 August 2020 00:00
Orbit: 418 x 420 km, 51.6° (Epoch: 04 August)

Date Brightness Start Highest point End Pass type
(mag) Time Alt. Az. Time Alt. Az. Time Alt. Az.
03 Aug -3.5 20:39:11 10° NW 20:42:32 59° NE 20:45:50 10° ESE visible
03 Aug -1.2 22:17:15 10° W 22:18:48 13° SW 22:18:48 13° SW visible
04 Aug -1.9 21:28:50 10° WNW 21:31:35 23° SW 21:33:14 16° S visible
05 Aug -2.8 20:40:55 10° WNW 20:44:07 41° SW 20:47:19 10° SSE visible
07 Aug -1.0 20:43:45 10° W 20:45:27 13° SW 20:47:10 10° SSW visible
